Year,Month,Day,Hour,Minute,Value (Times are PST for temperature in C)
2011,11,28,00,00,2.10
2011,11,28,00,01,2.10
2011,11,28,00,02,2.10
2011,11,28,00,03,2.00
2011,11,28,00,04,2.00
2011,11,28,00,05,2.00
2011,11,28,00,06,2.00
2011,11,28,00,07,2.00
2011,11,28,00,08,2.00
2011,11,28,00,09,2.00
2011,11,28,00,10,2.10
2011,11,28,00,11,2.10
2011,11,28,00,12,2.10
2011,11,28,00,13,2.10
2011,11,28,00,14,2.10
2011,11,28,00,15,2.10
2011,11,28,00,16,2.10
2011,11,28,00,17,2.00
2011,11,28,00,18,2.00
2011,11,28,00,19,1.90
2011,11,28,00,20,1.80
2011,11,28,00,21,1.80
2011,11,28,00,22,1.70
2011,11,28,00,23,1.70
2011,11,28,00,24,1.70
2011,11,28,00,25,1.70
2011,11,28,00,26,1.70
2011,11,28,00,27,1.70
2011,11,28,00,28,1.70
2011,11,28,00,29,1.80
2011,11,28,00,30,1.90
2011,11,28,00,31,2.00
2011,11,28,00,32,2.10
2011,11,28,00,33,2.20
2011,11,28,00,34,2.20
2011,11,28,00,35,2.30
2011,11,28,00,36,2.30
2011,11,28,00,37,2.30
2011,11,28,00,38,2.30
2011,11,28,00,39,2.20
2011,11,28,00,40,2.20
2011,11,28,00,41,2.10
2011,11,28,00,42,2.10
2011,11,28,00,43,2.00
2011,11,28,00,44,1.90
2011,11,28,00,45,1.90
2011,11,28,00,46,1.90
2011,11,28,00,47,1.80
2011,11,28,00,48,1.80
2011,11,28,00,49,1.80
2011,11,28,00,50,1.70
2011,11,28,00,51,1.70
2011,11,28,00,52,1.70
2011,11,28,00,53,1.60
2011,11,28,00,54,1.50
2011,11,28,00,55,1.40
2011,11,28,00,56,1.30
2011,11,28,00,57,1.30
2011,11,28,00,58,1.30
2011,11,28,00,59,1.30
2011,11,28,01,00,1.20
2011,11,28,01,01,1.20
2011,11,28,01,02,1.10
2011,11,28,01,03,1.10
2011,11,28,01,04,1.10
2011,11,28,01,05,1.00
2011,11,28,01,06,0.90
2011,11,28,01,07,0.90
2011,11,28,01,08,0.80
2011,11,28,01,09,0.80
2011,11,28,01,10,0.80
2011,11,28,01,11,0.80
2011,11,28,01,12,0.80
2011,11,28,01,13,0.70
2011,11,28,01,14,0.70
2011,11,28,01,15,0.70
2011,11,28,01,16,0.70
2011,11,28,01,17,0.70
2011,11,28,01,18,0.60
2011,11,28,01,19,0.60
2011,11,28,01,20,0.60
2011,11,28,01,21,0.60
2011,11,28,01,22,0.70
2011,11,28,01,23,0.60
2011,11,28,01,24,0.60
2011,11,28,01,25,0.70
2011,11,28,01,26,0.70
2011,11,28,01,27,0.70
2011,11,28,01,28,0.70
2011,11,28,01,29,0.70
2011,11,28,01,30,0.60
2011,11,28,01,31,0.60
2011,11,28,01,32,0.60
2011,11,28,01,33,0.60
2011,11,28,01,34,0.50
2011,11,28,01,35,0.50
2011,11,28,01,36,0.50
2011,11,28,01,37,0.50
2011,11,28,01,38,0.50
2011,11,28,01,39,0.50
2011,11,28,01,40,0.40
2011,11,28,01,41,0.40
2011,11,28,01,42,0.40
2011,11,28,01,43,0.30
2011,11,28,01,44,0.30
2011,11,28,01,45,0.30
2011,11,28,01,46,0.20
2011,11,28,01,47,0.20
2011,11,28,01,48,0.20
2011,11,28,01,49,0.10
2011,11,28,01,50,0.10
2011,11,28,01,51,0.00
2011,11,28,01,52,0.00
2011,11,28,01,53,-0.10
2011,11,28,01,54,-0.10
2011,11,28,01,55,-0.10
2011,11,28,01,56,-0.10
2011,11,28,01,57,-0.10
2011,11,28,01,58,-0.10
2011,11,28,01,59,-0.10
2011,11,28,02,00,-0.10
2011,11,28,02,01,-0.10
2011,11,28,02,02,-0.10
2011,11,28,02,03,-0.10
2011,11,28,02,04,-0.20
2011,11,28,02,05,-0.20
2011,11,28,02,06,-0.20
2011,11,28,02,07,-0.20
2011,11,28,02,08,-0.20
2011,11,28,02,09,-0.20
2011,11,28,02,10,-0.20
2011,11,28,02,11,-0.20
2011,11,28,02,12,-0.20
2011,11,28,02,13,-0.20
2011,11,28,02,14,-0.20
2011,11,28,02,15,-0.20
2011,11,28,02,16,-0.20
2011,11,28,02,17,-0.20
2011,11,28,02,18,-0.30
2011,11,28,02,19,-0.30
2011,11,28,02,20,-0.30
2011,11,28,02,21,-0.30
2011,11,28,02,22,-0.30
2011,11,28,02,23,-0.30
2011,11,28,02,24,-0.30
2011,11,28,02,25,-0.30
2011,11,28,02,26,-0.30
2011,11,28,02,27,-0.30
2011,11,28,02,28,-0.30
2011,11,28,02,29,-0.40
2011,11,28,02,30,-0.40
2011,11,28,02,31,-0.40
2011,11,28,02,32,-0.40
2011,11,28,02,33,-0.40
2011,11,28,02,34,-0.40
2011,11,28,02,35,-0.40
2011,11,28,02,36,-0.40
2011,11,28,02,37,-0.40
2011,11,28,02,38,-0.40
2011,11,28,02,39,-0.40
2011,11,28,02,40,-0.40
2011,11,28,02,41,-0.40
2011,11,28,02,42,-0.40
2011,11,28,02,43,-0.40
2011,11,28,02,44,-0.30
2011,11,28,02,45,-0.30
2011,11,28,02,46,-0.30
2011,11,28,02,47,-0.30
2011,11,28,02,48,-0.30
2011,11,28,02,49,-0.30
2011,11,28,02,50,-0.30
2011,11,28,02,51,-0.30
2011,11,28,02,52,-0.30
2011,11,28,02,53,-0.30
2011,11,28,02,54,-0.40
2011,11,28,02,55,-0.40
2011,11,28,02,56,-0.40
2011,11,28,02,57,-0.30
2011,11,28,02,58,-0.40
2011,11,28,02,59,-0.40
2011,11,28,03,00,-0.40
2011,11,28,03,01,-0.40
2011,11,28,03,02,-0.30
2011,11,28,03,03,-0.30
2011,11,28,03,04,-0.20
2011,11,28,03,05,-0.10
2011,11,28,03,06,-0.10
2011,11,28,03,07,-0.20
2011,11,28,03,08,-0.20
2011,11,28,03,09,-0.20
2011,11,28,03,10,-0.20
2011,11,28,03,11,-0.30
2011,11,28,03,12,-0.30
2011,11,28,03,13,-0.40
2011,11,28,03,14,-0.40
2011,11,28,03,15,-0.50
2011,11,28,03,16,-0.50
2011,11,28,03,17,-0.50
2011,11,28,03,18,-0.60
2011,11,28,03,19,-0.60
2011,11,28,03,20,-0.60
2011,11,28,03,21,-0.60
2011,11,28,03,22,-0.60
2011,11,28,03,23,-0.60
2011,11,28,03,24,-0.60
2011,11,28,03,25,-0.60
2011,11,28,03,26,-0.60
2011,11,28,03,27,-0.70
2011,11,28,03,28,-0.70
2011,11,28,03,29,-0.70
2011,11,28,03,30,-0.80
2011,11,28,03,31,-0.80
2011,11,28,03,32,-0.90
2011,11,28,03,33,-0.90
2011,11,28,03,34,-1.00
2011,11,28,03,35,-1.00
2011,11,28,03,36,-1.00
2011,11,28,03,37,-1.00
2011,11,28,03,38,-1.00
2011,11,28,03,39,-1.00
2011,11,28,03,40,-1.00
2011,11,28,03,41,-1.00
2011,11,28,03,42,-1.00
2011,11,28,03,43,-1.00
2011,11,28,03,44,-1.00
2011,11,28,03,45,-1.00
2011,11,28,03,46,-1.10
2011,11,28,03,47,-1.10
2011,11,28,03,48,-1.10
2011,11,28,03,49,-1.10
2011,11,28,03,50,-1.10
2011,11,28,03,51,-1.10
2011,11,28,03,52,-1.10
2011,11,28,03,53,-1.10
2011,11,28,03,54,-1.20
2011,11,28,03,55,-1.20
2011,11,28,03,56,-1.20
2011,11,28,03,57,-1.20
2011,11,28,03,58,-1.20
2011,11,28,03,59,-1.20
2011,11,28,04,00,-1.20
2011,11,28,04,01,-1.20
2011,11,28,04,02,-1.20
2011,11,28,04,03,-1.20
2011,11,28,04,04,-1.20
2011,11,28,04,05,-1.20
2011,11,28,04,06,-1.20
2011,11,28,04,07,-1.20
2011,11,28,04,08,-1.10
2011,11,28,04,09,-1.10
2011,11,28,04,10,-1.10
2011,11,28,04,11,-1.10
2011,11,28,04,12,-1.20
2011,11,28,04,13,-1.10
2011,11,28,04,14,-1.10
2011,11,28,04,15,-1.10
2011,11,28,04,16,-1.10
2011,11,28,04,17,-1.00
2011,11,28,04,18,-0.90
2011,11,28,04,19,-0.90
2011,11,28,04,20,-0.80
2011,11,28,04,21,-0.80
2011,11,28,04,22,-0.80
2011,11,28,04,23,-0.70
2011,11,28,04,24,-0.70
2011,11,28,04,25,-0.50
2011,11,28,04,26,-0.30
2011,11,28,04,27,-0.10
2011,11,28,04,28,0.10
2011,11,28,04,29,0.30
2011,11,28,04,30,0.40
2011,11,28,04,31,0.50
2011,11,28,04,32,0.70
2011,11,28,04,33,0.80
2011,11,28,04,34,0.90
2011,11,28,04,35,0.90
2011,11,28,04,36,1.00
2011,11,28,04,37,1.10
2011,11,28,04,38,1.20
2011,11,28,04,39,1.30
2011,11,28,04,40,1.30
2011,11,28,04,41,1.30
2011,11,28,04,42,1.30
2011,11,28,04,43,1.30
2011,11,28,04,44,1.30
2011,11,28,04,45,1.30
2011,11,28,04,46,1.30
2011,11,28,04,47,1.30
2011,11,28,04,48,1.40
2011,11,28,04,49,1.40
2011,11,28,04,50,1.50
2011,11,28,04,51,1.50
2011,11,28,04,52,1.50
2011,11,28,04,53,1.50
2011,11,28,04,54,1.40
2011,11,28,04,55,1.40
2011,11,28,04,56,1.40
2011,11,28,04,57,1.30
2011,11,28,04,58,1.30
2011,11,28,04,59,1.30
2011,11,28,05,00,1.30
2011,11,28,05,01,1.30
2011,11,28,05,02,1.30
2011,11,28,05,03,1.20
2011,11,28,05,04,1.20
2011,11,28,05,05,1.10
2011,11,28,05,06,1.00
2011,11,28,05,07,0.90
2011,11,28,05,08,0.80
2011,11,28,05,09,0.80
2011,11,28,05,10,0.70
2011,11,28,05,11,0.60
2011,11,28,05,12,0.50
2011,11,28,05,13,0.40
2011,11,28,05,14,0.40
2011,11,28,05,15,0.30
2011,11,28,05,16,0.30
2011,11,28,05,17,0.30
2011,11,28,05,18,0.30
2011,11,28,05,19,0.30
2011,11,28,05,20,0.30
2011,11,28,05,21,0.30
2011,11,28,05,22,0.30
2011,11,28,05,23,0.30
2011,11,28,05,24,0.30
2011,11,28,05,25,0.30
2011,11,28,05,26,0.30
2011,11,28,05,27,0.20
2011,11,28,05,28,0.20
2011,11,28,05,29,0.20
2011,11,28,05,30,0.20
2011,11,28,05,31,0.30
2011,11,28,05,32,0.30
2011,11,28,05,33,0.30
2011,11,28,05,34,0.30
2011,11,28,05,35,0.30
2011,11,28,05,36,0.30
2011,11,28,05,37,0.30
2011,11,28,05,38,0.40
2011,11,28,05,39,0.50
2011,11,28,05,40,0.60
2011,11,28,05,41,0.70
2011,11,28,05,42,0.80
2011,11,28,05,43,0.80
2011,11,28,05,44,0.80
2011,11,28,05,45,0.80
2011,11,28,05,46,0.80
2011,11,28,05,47,0.80
2011,11,28,05,48,0.70
2011,11,28,05,49,0.70
2011,11,28,05,50,0.70
2011,11,28,05,51,0.70
2011,11,28,05,52,0.70
2011,11,28,05,53,0.60
2011,11,28,05,54,0.50
2011,11,28,05,55,0.50
2011,11,28,05,56,0.40
2011,11,28,05,57,0.40
2011,11,28,05,58,0.30
2011,11,28,05,59,0.30
2011,11,28,06,00,0.30
2011,11,28,06,01,0.30
2011,11,28,06,02,0.30
2011,11,28,06,03,0.20
2011,11,28,06,04,0.20
2011,11,28,06,05,0.20
2011,11,28,06,06,0.20
2011,11,28,06,07,0.20
2011,11,28,06,08,0.20
2011,11,28,06,09,0.20
2011,11,28,06,10,0.20
2011,11,28,06,11,0.20
2011,11,28,06,12,0.20
2011,11,28,06,13,0.20
2011,11,28,06,14,0.20
2011,11,28,06,15,0.30
2011,11,28,06,16,0.30
2011,11,28,06,17,0.30
2011,11,28,06,18,0.30
2011,11,28,06,19,0.30
2011,11,28,06,20,0.30
2011,11,28,06,21,0.30
2011,11,28,06,22,0.30
2011,11,28,06,23,0.30
2011,11,28,06,24,0.30
2011,11,28,06,25,0.20
2011,11,28,06,26,0.20
2011,11,28,06,27,0.20
2011,11,28,06,28,0.20
2011,11,28,06,29,0.20
2011,11,28,06,30,0.20
2011,11,28,06,31,0.20
2011,11,28,06,32,0.20
2011,11,28,06,33,0.20
2011,11,28,06,34,0.20
2011,11,28,06,35,0.20
2011,11,28,06,36,0.20
2011,11,28,06,37,0.20
2011,11,28,06,38,0.20
2011,11,28,06,39,0.20
2011,11,28,06,40,0.20
2011,11,28,06,41,0.30
2011,11,28,06,42,0.30
2011,11,28,06,43,0.30
2011,11,28,06,44,0.30
2011,11,28,06,45,0.30
2011,11,28,06,46,0.30
2011,11,28,06,47,0.30
2011,11,28,06,48,0.30
2011,11,28,06,49,0.30
2011,11,28,06,50,0.30
2011,11,28,06,51,0.30
2011,11,28,06,52,0.30
2011,11,28,06,53,0.30
2011,11,28,06,54,0.30
2011,11,28,06,55,0.30
2011,11,28,06,56,0.30
2011,11,28,06,57,0.20
2011,11,28,06,58,0.20
2011,11,28,06,59,0.20
2011,11,28,07,00,0.20
2011,11,28,07,01,0.20
2011,11,28,07,02,0.20
2011,11,28,07,03,0.20
2011,11,28,07,04,0.20
2011,11,28,07,05,0.20
2011,11,28,07,06,0.20
2011,11,28,07,07,0.30
2011,11,28,07,08,0.30
2011,11,28,07,09,0.30
2011,11,28,07,10,0.20
2011,11,28,07,11,0.20
2011,11,28,07,12,0.10
2011,11,28,07,13,0.10
2011,11,28,07,14,0.10
2011,11,28,07,15,0.00
2011,11,28,07,16,-0.10
2011,11,28,07,17,-0.10
2011,11,28,07,18,-0.10
2011,11,28,07,19,-0.10
2011,11,28,07,20,-0.10
2011,11,28,07,21,-0.10
2011,11,28,07,22,-0.10
2011,11,28,07,23,-0.10
2011,11,28,07,24,-0.10
2011,11,28,07,25,-0.10
2011,11,28,07,26,-0.10
2011,11,28,07,27,-0.10
2011,11,28,07,28,-0.10
2011,11,28,07,29,-0.10
2011,11,28,07,30,-0.10
2011,11,28,07,31,-0.10
2011,11,28,07,32,-0.10
2011,11,28,07,33,0.00
2011,11,28,07,34,0.00
2011,11,28,07,35,0.00
2011,11,28,07,36,0.10
2011,11,28,07,37,0.10
2011,11,28,07,38,0.10
2011,11,28,07,39,0.10
2011,11,28,07,40,0.10
2011,11,28,07,41,0.10
2011,11,28,07,42,0.10
2011,11,28,07,43,0.10
2011,11,28,07,44,0.20
2011,11,28,07,45,0.20
2011,11,28,07,46,0.30
2011,11,28,07,47,0.30
2011,11,28,07,48,0.40
2011,11,28,07,49,0.40
2011,11,28,07,50,0.50
2011,11,28,07,51,0.50
2011,11,28,07,52,0.50
2011,11,28,07,53,0.60
2011,11,28,07,54,0.60
2011,11,28,07,55,0.60
2011,11,28,07,56,0.60
2011,11,28,07,57,0.60
2011,11,28,07,58,0.70
2011,11,28,07,59,0.70
2011,11,28,08,00,0.80
2011,11,28,08,01,0.80
2011,11,28,08,02,0.80
2011,11,28,08,03,0.90
2011,11,28,08,04,0.90
2011,11,28,08,05,0.90
2011,11,28,08,06,1.00
2011,11,28,08,07,1.00
2011,11,28,08,08,1.00
2011,11,28,08,09,1.10
2011,11,28,08,10,1.10
2011,11,28,08,11,1.10
2011,11,28,08,12,1.10
2011,11,28,08,13,1.10
2011,11,28,08,14,1.20
2011,11,28,08,15,1.20
2011,11,28,08,16,1.30
2011,11,28,08,17,1.30
2011,11,28,08,18,1.30
2011,11,28,08,19,1.30
2011,11,28,08,20,1.30
2011,11,28,08,21,1.20
2011,11,28,08,22,1.20
2011,11,28,08,23,1.20
2011,11,28,08,24,1.20
2011,11,28,08,25,1.10
2011,11,28,08,26,1.10
2011,11,28,08,27,1.10
2011,11,28,08,28,1.10
2011,11,28,08,29,1.10
2011,11,28,08,30,1.10
2011,11,28,08,31,1.00
2011,11,28,08,32,1.00
2011,11,28,08,33,1.00
2011,11,28,08,34,0.90
2011,11,28,08,35,0.90
2011,11,28,08,36,0.90
2011,11,28,08,37,0.90
2011,11,28,08,38,0.80
2011,11,28,08,39,0.80
2011,11,28,08,40,0.80
2011,11,28,08,41,0.80
2011,11,28,08,42,0.80
2011,11,28,08,43,0.80
2011,11,28,08,44,0.80
2011,11,28,08,45,0.80
2011,11,28,08,46,0.80
2011,11,28,08,47,0.80
2011,11,28,08,48,0.90
2011,11,28,08,49,0.90
2011,11,28,08,50,0.90
2011,11,28,08,51,0.90
2011,11,28,08,52,0.90
2011,11,28,08,53,0.90
2011,11,28,08,54,0.90
2011,11,28,08,55,0.90
2011,11,28,08,56,1.00
2011,11,28,08,57,1.00
2011,11,28,08,58,1.00
2011,11,28,08,59,1.00
2011,11,28,09,00,1.00
2011,11,28,09,01,1.00
2011,11,28,09,02,0.90
2011,11,28,09,03,0.90
2011,11,28,09,04,0.90
2011,11,28,09,05,0.90
2011,11,28,09,06,1.00
2011,11,28,09,07,1.10
2011,11,28,09,08,1.10
2011,11,28,09,09,1.20
2011,11,28,09,10,1.30
2011,11,28,09,11,1.30
2011,11,28,09,12,1.30
2011,11,28,09,13,1.30
2011,11,28,09,14,1.30
2011,11,28,09,15,1.40
2011,11,28,09,16,1.50
2011,11,28,09,17,1.50
2011,11,28,09,18,1.60
2011,11,28,09,19,1.60
2011,11,28,09,20,1.60
2011,11,28,09,21,1.70
2011,11,28,09,22,1.70
2011,11,28,09,23,1.80
2011,11,28,09,24,1.80
2011,11,28,09,25,1.80
2011,11,28,09,26,1.90
2011,11,28,09,27,1.90
2011,11,28,09,28,1.90
2011,11,28,09,29,2.00
2011,11,28,09,30,2.10
2011,11,28,09,31,2.10
2011,11,28,09,32,2.10
2011,11,28,09,33,2.20
2011,11,28,09,34,2.20
2011,11,28,09,35,2.30
2011,11,28,09,36,2.30
2011,11,28,09,37,2.30
2011,11,28,09,38,2.40
2011,11,28,09,39,2.40
2011,11,28,09,40,2.50
2011,11,28,09,41,2.50
2011,11,28,09,42,2.50
2011,11,28,09,43,2.50
2011,11,28,09,44,2.50
2011,11,28,09,45,2.50
2011,11,28,09,46,2.60
2011,11,28,09,47,2.60
2011,11,28,09,48,2.60
2011,11,28,09,49,2.60
2011,11,28,09,50,2.60
2011,11,28,09,51,2.60
2011,11,28,09,52,2.60
2011,11,28,09,53,2.60
2011,11,28,09,54,2.60
2011,11,28,09,55,2.60
2011,11,28,09,56,2.70
2011,11,28,09,57,2.70
2011,11,28,09,58,2.70
2011,11,28,09,59,2.70
2011,11,28,10,00,2.70
2011,11,28,10,01,2.70
2011,11,28,10,02,2.70
2011,11,28,10,03,2.70
2011,11,28,10,04,2.70
2011,11,28,10,05,2.70
2011,11,28,10,06,2.70
2011,11,28,10,07,2.70
2011,11,28,10,08,2.80
2011,11,28,10,09,2.80
2011,11,28,10,10,2.80
2011,11,28,10,11,2.90
2011,11,28,10,12,2.90
2011,11,28,10,13,2.90
2011,11,28,10,14,3.00
2011,11,28,10,15,3.00
2011,11,28,10,16,3.00
2011,11,28,10,17,3.10
2011,11,28,10,18,3.10
2011,11,28,10,19,3.10
2011,11,28,10,20,3.10
2011,11,28,10,21,3.20
2011,11,28,10,22,3.20
2011,11,28,10,23,3.20
2011,11,28,10,24,3.30
2011,11,28,10,25,3.30
2011,11,28,10,26,3.30
2011,11,28,10,27,3.30
2011,11,28,10,28,3.40
2011,11,28,10,29,3.40
2011,11,28,10,30,3.40
2011,11,28,10,31,3.50
2011,11,28,10,32,3.50
2011,11,28,10,33,3.50
2011,11,28,10,34,3.50
2011,11,28,10,35,3.60
2011,11,28,10,36,3.60
2011,11,28,10,37,3.60
2011,11,28,10,38,3.70
2011,11,28,10,39,3.70
2011,11,28,10,40,3.70
2011,11,28,10,41,3.70
2011,11,28,10,42,3.80
2011,11,28,10,43,3.80
2011,11,28,10,44,3.80
2011,11,28,10,45,3.90
2011,11,28,10,46,3.90
2011,11,28,10,47,3.90
2011,11,28,10,48,4.00
2011,11,28,10,49,4.00
2011,11,28,10,50,4.10
2011,11,28,10,51,4.10
2011,11,28,10,52,4.10
2011,11,28,10,53,4.20
2011,11,28,10,54,4.20
2011,11,28,10,55,4.20
2011,11,28,10,56,4.20
2011,11,28,10,57,4.20
2011,11,28,10,58,4.30
2011,11,28,10,59,4.30
2011,11,28,11,00,4.30
2011,11,28,11,01,4.40
2011,11,28,11,02,4.40
2011,11,28,11,03,4.50
2011,11,28,11,04,4.60
2011,11,28,11,05,4.70
2011,11,28,11,06,4.80
2011,11,28,11,07,4.90
2011,11,28,11,08,5.00
2011,11,28,11,09,5.10
2011,11,28,11,10,5.10
2011,11,28,11,11,5.10
2011,11,28,11,12,5.10
2011,11,28,11,13,5.10
2011,11,28,11,14,5.20
2011,11,28,11,15,5.20
2011,11,28,11,16,5.20
2011,11,28,11,17,5.20
2011,11,28,11,18,5.20
2011,11,28,11,19,5.20
2011,11,28,11,20,5.10
2011,11,28,11,21,5.20
2011,11,28,11,22,5.20
2011,11,28,11,23,5.20
2011,11,28,11,24,5.20
2011,11,28,11,25,5.20
2011,11,28,11,26,5.20
2011,11,28,11,27,5.20
2011,11,28,11,28,5.20
2011,11,28,11,29,5.20
2011,11,28,11,30,5.20
2011,11,28,11,31,5.20
2011,11,28,11,32,5.20
2011,11,28,11,33,5.20
2011,11,28,11,34,5.30
2011,11,28,11,35,5.30
2011,11,28,11,36,5.30
2011,11,28,11,37,5.40
2011,11,28,11,38,5.40
2011,11,28,11,39,5.40
2011,11,28,11,40,5.40
2011,11,28,11,41,5.40
2011,11,28,11,42,5.40
2011,11,28,11,43,5.40
2011,11,28,11,44,5.40
2011,11,28,11,45,5.40
2011,11,28,11,46,5.40
2011,11,28,11,47,5.40
2011,11,28,11,48,5.40
2011,11,28,11,49,5.40
2011,11,28,11,50,5.40
2011,11,28,11,51,5.40
2011,11,28,11,52,5.40
2011,11,28,11,53,5.40
2011,11,28,11,54,5.40
2011,11,28,11,55,5.40
2011,11,28,11,56,5.50
2011,11,28,11,57,5.50
2011,11,28,11,58,5.40
2011,11,28,11,59,5.40
2011,11,28,12,00,5.40
2011,11,28,12,01,5.40
2011,11,28,12,02,5.50
2011,11,28,12,03,5.50
2011,11,28,12,04,5.60
2011,11,28,12,05,5.60
2011,11,28,12,06,5.70
2011,11,28,12,07,5.70
2011,11,28,12,08,5.80
2011,11,28,12,09,5.80
2011,11,28,12,10,5.90
2011,11,28,12,11,6.00
2011,11,28,12,12,6.20
2011,11,28,12,13,6.30
2011,11,28,12,14,6.40
2011,11,28,12,15,6.50
2011,11,28,12,16,6.50
2011,11,28,12,17,6.60
2011,11,28,12,18,6.60
2011,11,28,12,19,6.70
2011,11,28,12,20,6.70
2011,11,28,12,21,6.70
2011,11,28,12,22,6.60
2011,11,28,12,23,6.60
2011,11,28,12,24,6.50
2011,11,28,12,25,6.50
2011,11,28,12,26,6.50
2011,11,28,12,27,6.60
2011,11,28,12,28,6.60
2011,11,28,12,29,6.50
2011,11,28,12,30,6.50
2011,11,28,12,31,6.50
2011,11,28,12,32,6.50
2011,11,28,12,33,6.40
2011,11,28,12,34,6.40
2011,11,28,12,35,6.50
2011,11,28,12,36,6.60
2011,11,28,12,37,6.60
2011,11,28,12,38,6.60
2011,11,28,12,39,6.60
2011,11,28,12,40,6.50
2011,11,28,12,41,6.40
2011,11,28,12,42,6.40
2011,11,28,12,43,6.30
2011,11,28,12,44,6.20
2011,11,28,12,45,6.10
2011,11,28,12,46,6.10
2011,11,28,12,47,6.10
2011,11,28,12,48,6.00
2011,11,28,12,49,6.00
2011,11,28,12,50,5.90
2011,11,28,12,51,5.90
2011,11,28,12,52,5.80
2011,11,28,12,53,5.70
2011,11,28,12,54,5.70
2011,11,28,12,55,5.70
2011,11,28,12,56,5.70
2011,11,28,12,57,5.70
2011,11,28,12,58,5.70
2011,11,28,12,59,5.70
2011,11,28,13,00,5.70
2011,11,28,13,01,5.70
2011,11,28,13,02,5.70
2011,11,28,13,03,5.70
2011,11,28,13,04,5.70
2011,11,28,13,05,5.80
2011,11,28,13,06,5.80
2011,11,28,13,07,5.80
2011,11,28,13,08,5.80
2011,11,28,13,09,5.80
2011,11,28,13,10,5.80
2011,11,28,13,11,5.90
2011,11,28,13,12,5.90
2011,11,28,13,13,5.90
2011,11,28,13,14,5.90
2011,11,28,13,15,5.90
2011,11,28,13,16,5.90
2011,11,28,13,17,5.90
2011,11,28,13,18,5.90
2011,11,28,13,19,5.90
2011,11,28,13,20,5.90
2011,11,28,13,21,5.90
2011,11,28,13,22,6.00
2011,11,28,13,23,6.00
2011,11,28,13,24,6.00
2011,11,28,13,25,5.90
2011,11,28,13,26,6.00
2011,11,28,13,27,6.00
2011,11,28,13,28,6.00
2011,11,28,13,29,6.10
2011,11,28,13,30,6.10
2011,11,28,13,31,6.20
2011,11,28,13,32,6.30
2011,11,28,13,33,6.30
2011,11,28,13,34,6.40
2011,11,28,13,35,6.40
2011,11,28,13,36,6.50
2011,11,28,13,37,6.50
2011,11,28,13,38,6.50
2011,11,28,13,39,6.60
2011,11,28,13,40,6.60
2011,11,28,13,41,6.60
2011,11,28,13,42,6.60
2011,11,28,13,43,6.70
2011,11,28,13,44,6.70
2011,11,28,13,45,6.80
2011,11,28,13,46,6.80
2011,11,28,13,47,6.80
2011,11,28,13,48,6.80
2011,11,28,13,49,6.80
2011,11,28,13,50,6.90
2011,11,28,13,51,6.90
2011,11,28,13,52,7.00
2011,11,28,13,53,7.10
2011,11,28,13,54,7.20
2011,11,28,13,55,7.20
2011,11,28,13,56,7.30
2011,11,28,13,57,7.30
2011,11,28,13,58,7.30
2011,11,28,13,59,7.30
2011,11,28,14,00,7.20
2011,11,28,14,01,7.20
2011,11,28,14,02,7.10
2011,11,28,14,03,7.00
2011,11,28,14,04,6.90
2011,11,28,14,05,6.80
2011,11,28,14,06,6.70
2011,11,28,14,07,6.60
2011,11,28,14,08,6.60
2011,11,28,14,09,6.60
2011,11,28,14,10,6.50
2011,11,28,14,11,6.40
2011,11,28,14,12,6.30
2011,11,28,14,13,6.10
2011,11,28,14,14,6.00
2011,11,28,14,15,5.90
2011,11,28,14,16,5.80
2011,11,28,14,17,5.80
2011,11,28,14,18,5.70
2011,11,28,14,19,5.70
2011,11,28,14,20,5.70
2011,11,28,14,21,5.60
2011,11,28,14,22,5.60
2011,11,28,14,23,5.60
2011,11,28,14,24,5.60
2011,11,28,14,25,5.60
2011,11,28,14,26,5.60
2011,11,28,14,27,5.50
2011,11,28,14,28,5.40
2011,11,28,14,29,5.40
2011,11,28,14,30,5.40
2011,11,28,14,31,5.40
2011,11,28,14,32,5.30
2011,11,28,14,33,5.30
2011,11,28,14,34,5.30
2011,11,28,14,35,5.30
2011,11,28,14,36,5.30
2011,11,28,14,37,5.30
2011,11,28,14,38,5.20
2011,11,28,14,39,5.20
2011,11,28,14,40,5.20
2011,11,28,14,41,5.20
2011,11,28,14,42,5.20
2011,11,28,14,43,5.20
2011,11,28,14,44,5.20
2011,11,28,14,45,5.20
2011,11,28,14,46,5.20
2011,11,28,14,47,5.20
2011,11,28,14,48,5.20
2011,11,28,14,49,5.20
2011,11,28,14,50,5.20
2011,11,28,14,51,5.10
2011,11,28,14,52,5.10
2011,11,28,14,53,5.10
2011,11,28,14,54,5.10
2011,11,28,14,55,5.10
2011,11,28,14,56,5.10
2011,11,28,14,57,5.10
2011,11,28,14,58,5.10
2011,11,28,14,59,5.00
2011,11,28,15,00,5.00
2011,11,28,15,01,5.00
2011,11,28,15,02,5.00
2011,11,28,15,03,5.00
2011,11,28,15,04,5.00
2011,11,28,15,05,5.00
2011,11,28,15,06,5.00
2011,11,28,15,07,4.90
2011,11,28,15,08,4.90
2011,11,28,15,09,4.90
2011,11,28,15,10,4.90
2011,11,28,15,11,4.90
2011,11,28,15,12,4.90
2011,11,28,15,13,4.90
2011,11,28,15,14,4.90
2011,11,28,15,15,5.00
2011,11,28,15,16,5.10
2011,11,28,15,17,5.10
2011,11,28,15,18,5.20
2011,11,28,15,19,5.20
2011,11,28,15,20,5.20
2011,11,28,15,21,5.30
2011,11,28,15,22,5.30
2011,11,28,15,23,5.30
2011,11,28,15,24,5.30
2011,11,28,15,25,5.30
2011,11,28,15,26,5.20
2011,11,28,15,27,5.20
2011,11,28,15,28,5.20
2011,11,28,15,29,5.20
2011,11,28,15,30,5.20
2011,11,28,15,31,5.20
2011,11,28,15,32,5.20
2011,11,28,15,33,5.20
2011,11,28,15,34,5.20
2011,11,28,15,35,5.20
2011,11,28,15,36,5.30
2011,11,28,15,37,5.30
2011,11,28,15,38,5.30
2011,11,28,15,39,5.30
2011,11,28,15,40,5.30
2011,11,28,15,41,5.30
2011,11,28,15,42,5.30
2011,11,28,15,43,5.30
2011,11,28,15,44,5.30
2011,11,28,15,45,5.20
2011,11,28,15,46,5.20
2011,11,28,15,47,5.20
2011,11,28,15,48,5.20
2011,11,28,15,49,5.10
2011,11,28,15,50,5.10
2011,11,28,15,51,5.10
2011,11,28,15,52,5.10
2011,11,28,15,53,5.10
2011,11,28,15,54,5.00
2011,11,28,15,55,5.00
2011,11,28,15,56,5.00
2011,11,28,15,57,5.00
2011,11,28,15,58,5.00
2011,11,28,15,59,4.90
2011,11,28,16,00,4.90
2011,11,28,16,01,4.90
2011,11,28,16,02,4.90
2011,11,28,16,03,4.90
2011,11,28,16,04,4.90
2011,11,28,16,05,4.90
2011,11,28,16,06,4.90
2011,11,28,16,07,4.90
2011,11,28,16,08,4.90
2011,11,28,16,09,5.00
2011,11,28,16,10,4.90
2011,11,28,16,11,4.90
2011,11,28,16,12,4.90
2011,11,28,16,13,5.00
2011,11,28,16,14,4.90
2011,11,28,16,15,4.90
2011,11,28,16,16,4.90
2011,11,28,16,17,4.90
2011,11,28,16,18,4.90
2011,11,28,16,19,4.80
2011,11,28,16,20,4.80
2011,11,28,16,21,4.80
2011,11,28,16,22,4.80
2011,11,28,16,23,4.80
2011,11,28,16,24,4.80
2011,11,28,16,25,4.80
2011,11,28,16,26,4.80
2011,11,28,16,27,4.80
2011,11,28,16,28,4.80
2011,11,28,16,29,4.80
2011,11,28,16,30,4.80
2011,11,28,16,31,4.80
2011,11,28,16,32,4.80
2011,11,28,16,33,4.80
2011,11,28,16,34,4.80
2011,11,28,16,35,4.80
2011,11,28,16,36,4.80
2011,11,28,16,37,4.80
2011,11,28,16,38,4.80
2011,11,28,16,39,4.80
2011,11,28,16,40,4.80
2011,11,28,16,41,4.80
2011,11,28,16,42,4.80
2011,11,28,16,43,4.80
2011,11,28,16,44,4.80
2011,11,28,16,45,4.80
2011,11,28,16,46,4.80
2011,11,28,16,47,4.70
2011,11,28,16,48,4.70
2011,11,28,16,49,4.70
2011,11,28,16,50,4.70
2011,11,28,16,51,4.70
2011,11,28,16,52,4.70
2011,11,28,16,53,4.70
2011,11,28,16,54,4.70
2011,11,28,16,55,4.70
2011,11,28,16,56,4.60
2011,11,28,16,57,4.60
2011,11,28,16,58,4.50
2011,11,28,16,59,4.50
2011,11,28,17,00,4.40
2011,11,28,17,01,4.40
2011,11,28,17,02,4.40
2011,11,28,17,03,4.40
2011,11,28,17,04,4.40
2011,11,28,17,05,4.40
2011,11,28,17,06,4.30
2011,11,28,17,07,4.30
2011,11,28,17,08,4.20
2011,11,28,17,09,4.20
2011,11,28,17,10,4.20
2011,11,28,17,11,4.20
2011,11,28,17,12,4.10
2011,11,28,17,13,4.10
2011,11,28,17,14,4.10
2011,11,28,17,15,4.10
2011,11,28,17,16,4.10
2011,11,28,17,17,4.10
2011,11,28,17,18,4.10
2011,11,28,17,19,4.10
2011,11,28,17,20,4.10
2011,11,28,17,21,4.00
2011,11,28,17,22,4.00
2011,11,28,17,23,3.90
2011,11,28,17,24,3.90
2011,11,28,17,25,3.90
2011,11,28,17,26,3.90
2011,11,28,17,27,3.90
2011,11,28,17,28,3.80
2011,11,28,17,29,3.80
2011,11,28,17,30,3.80
2011,11,28,17,31,3.80
2011,11,28,17,32,3.80
2011,11,28,17,33,3.80
2011,11,28,17,34,3.80
2011,11,28,17,35,3.80
2011,11,28,17,36,3.70
2011,11,28,17,37,3.70
2011,11,28,17,38,3.70
2011,11,28,17,39,3.70
2011,11,28,17,40,3.60
2011,11,28,17,41,3.60
2011,11,28,17,42,3.60
2011,11,28,17,43,3.50
2011,11,28,17,44,3.50
2011,11,28,17,45,3.40
2011,11,28,17,46,3.40
2011,11,28,17,47,3.30
2011,11,28,17,48,3.30
2011,11,28,17,49,3.20
2011,11,28,17,50,3.20
2011,11,28,17,51,3.20
2011,11,28,17,52,3.20
2011,11,28,17,53,3.10
2011,11,28,17,54,3.10
2011,11,28,17,55,3.10
2011,11,28,17,56,3.00
2011,11,28,17,57,3.00
2011,11,28,17,58,2.90